Regional Weather Roundup
Issued by NWS

Home | Current Version | Previous Version | Graphics & Text | Print | Product List | Glossary On
Versions: 1 2 3 4 5 6 7 8 9 10 11 12 13 14 15 16 17 18 19 20 21 22 23 24 25 26 27 28 29 30 31 32 33 34 35 36 37 38 39 40 41 42 43 44 45 46 47 48 49 50
000
ASUS43 KMKX 201310
RWRWI

WISCONSIN REGIONAL WEATHER ROUNDUP
NATIONAL WEATHER SERVICE MILWAUKEE/SULLIVAN WI
800 AM CDT FRI APR 20 2018

NOTE: "FAIR" INDICATES FEW OR NO CLOUDS BELOW 12,000 FEET WITH NO
SIGNIFICANT WEATHER AND/OR OBSTRUCTIONS TO VISIBILITY.

WIZ001-002-006>008-014>016-023>028-201400-
NORTHWEST WISCONSIN

CITY           SKY/WX    TMP DP  RH WIND       PRES   REMARKS
SUPERIOR ARPT  FAIR      36  24  64 SW7       30.46R WCI  30
ASHLAND        FAIR      39  23  52 SW8       30.45R WCI  33
HAYWARD        FAIR      28  24  85 CALM      30.47R
SIREN          FAIR      30  26  82 CALM      30.49R
CUMBERLAND     FAIR      27  19  74 CALM      30.48S
RICE LAKE      FAIR      26  24  89 CALM      30.50S
CHETEK         FAIR      28  23  84 CALM      30.49S
LADYSMITH      FAIR      30  21  69 CALM      30.49S
EAU CLAIRE     FAIR      31  25  78 CALM      30.49S
MENOMONIE      FAIR      31  26  82 CALM      30.50F
NEW RICHMOND   FAIR      31  26  82 CALM      30.50R
OSCEOLA        FAIR      29  25  83 CALM      30.53S
$$

WIZ003>005-009-010-017-018-201400-
NORTH CENTRAL WISCONSIN

CITY           SKY/WX    TMP DP  RH WIND       PRES   REMARKS
MANITOWISH WTR FAIR      23  15  70 CALM      30.44S
ARBOR VITAE    FAIR      29  19  65 CALM      30.45R
WOODRUFF       FAIR      29  19  65 CALM      30.45R
RHINELANDER    FAIR      27  14  58 CALM      30.46R
EAGLE RIVER    FAIR      24  16  72 CALM      30.44R
LAND O LAKES   FAIR      26  13  56 CALM      30.46S
PHILLIPS       FAIR      24  16  73 CALM      30.46R
TOMAHAWK       FAIR      24  14  66 CALM      30.47S
MEDFORD        FAIR      28  20  70 CALM      30.47R
MERRILL          N/A     24  17  77 CALM      30.48R
$$

WIZ029-030-035-036-043>047-201400-
CENTRAL WISCONSIN

CITY           SKY/WX    TMP DP  RH WIND       PRES   REMARKS
WAUSAU         FAIR      27  23  85 CALM      30.46R
MOSINEE        SUNNY     30  21  69 CALM      30.48R
MARSHFIELD     FAIR      30  17  58 NW6       30.47R WCI  24
STEVENS POINT  FAIR      24  20  84 CALM      30.49R
WAUPACA        FAIR      31  22  68 CALM      30.49R
WAUTOMA        FAIR      29  21  72 CALM      30.49R
WISC RAPIDS    FAIR      28  21  75 SW3       30.50R
CAMP DOUGLAS   SUNNY     28  25  86 CALM      30.50R
$$

WIZ011>013-019>022-031-037>040-048>050-201400-
NORTHEAST WISCONSIN

CITY           SKY/WX    TMP DP  RH WIND       PRES   REMARKS
ANTIGO         FAIR      26  17  70 CALM      30.47R
SHAWANO        FAIR      28  22  78 CALM      30.48R
OCONTO         FAIR      26  16  65 CALM      30.48R
STURGEON BAY   FAIR      35  19  52 CALM      30.48S
GREEN BAY      FAIR      27  23  85 CALM      30.49R
MANITOWOC      FAIR      32  23  69 CALM      30.50R
APPLETON       MOSUNNY   32  19  59 W6        30.46R WCI  26
CLINTONVILLE   FAIR      26  19  72 CALM      30.48R
OSHKOSH        FAIR      33  22  63 CALM      30.48R
$$

WIZ032>034-041-042-053>061-201400-
SOUTHWEST WISCONSIN

CITY           SKY/WX    TMP DP  RH WIND       PRES   REMARKS
LA CROSSE      FAIR      31  27  85 CALM      30.52S
SPARTA         FAIR      24  21  91 CALM      30.52S
VIROQUA        FAIR      30  24  76 NW3       30.49S
BOSCOBEL       FAIR      30  27  88 SW5       30.54R WCI  25
PRAIRIE DU CHI FAIR      29  25  84 CALM      30.53S
PLATTEVILLE    FAIR      34  30  85 CALM      30.52R
$$

WIZ056-057-062-063-064-067-068-201400-
SOUTH CENTRAL WISCONSIN

CITY           SKY/WX    TMP DP  RH WIND       PRES   REMARKS
REEDSBURG      FAIR      26  23  87 CALM      30.51R
BARABOO/DELLS  FAIR      27  21  79 CALM      30.51R
LONE ROCK      FAIR      28  27  96 W5        30.53R WCI  23
MINERAL POINT  FAIR      36  32  87 CALM      30.51R
MADISON        FAIR      31  26  82 CALM      30.50R
MIDDLETON      FAIR      36  29  78 W3        30.50S
WATERTOWN      FAIR      28  25  89 CALM      30.49S
MONROE         FAIR      39  25  56 W3        30.49R
JANESVILLE     SUNNY     32  32 100 CALM      30.50R
$$

WIZ051-052-058>065-066-070>072-201400-
SOUTHEAST WISCONSIN

CITY           SKY/WX    TMP DP  RH WIND       PRES   REMARKS
MILWAUKEE      FAIR      40  24  53 W3        30.50R
WAUKESHA       SUNNY     30  21  69 CALM      30.50R
MILWAUKEE/TIMM SUNNY     34  21  60 CALM      30.50R
RACINE         FAIR      40  24  53 NW3       30.51R
BURLINGTON     FAIR      32  25  73 CALM      30.50R
KENOSHA        FAIR      41  26  55 CALM      30.50R
FOND DU LAC    FAIR      29  20  69 S3        30.49R
SHEBOYGAN      FAIR      34  28  79 SW3       30.49R
WEST BEND      FAIR      32  27  80 CALM      30.49R
JUNEAU         FAIR      30  23  74 CALM      30.50R
$$

LSZ147-162-201400-
LAKE SUPERIOR

STATION/POSITION TIME  TEMP    WIND        PRES    WAVE
                       AIR SEA DIR/SP/G            HT/PER
                 (UTC) (F)     (DEG/KT/KT) (MB)    (FT/S)
DEVILS ISLAND    1300   39     230/  9/ 11 1031.6R
SAXON HARBOR     1230   34     180/  4/  7 1030.5R
$$

LMZ867-665-643>646-201400-
LAKE MICHIGAN

STATION/POSITION TIME  TEMP    WIND        PRES    WAVE
                       AIR SEA DIR/SP/G            HT/PER
                 (UTC) (F)     (DEG/KT/KT) (MB)    (FT/S)
NORTHPORT PIER   1140   35                 1031.2R
KEWAUNEE LAKESHO 1248   32     300/  6/  7 1031.2R
SHEBOYGAN LAKESH 1300   39     280/  2/  3 1032.9R
PORT WASHINGTON  1240   41     270/  3/  4 1033.5R
MILWAUKEE LAKESH 1230   39     310/  1/  1   N/A
KENOSHA   LAKESH 1300   40                 1032.8
$$

TC  - TEMPERATURE IN CELSIUS
VSB - VISIBILITY IN STATUTE MILES
WCI - WIND CHILL INDEX
HX  - HEAT INDEX





USA.gov is the U.S. government's official web portal to all federal, state and local government web resources and services.